timestamp,surface_pressure_avg,surface_temp_avg,battery_voltage,lat,long
2019-11-24 00:09:01+00:00,286.2297,3.92,12.49,47.84626,-54.09684
2019-11-24 00:19:01+00:00,278.1731,4.0,12.49,47.84626,-54.09684
2019-11-24 00:29:01+00:00,265.0248,4.04,12.49,47.84626,-54.09684
2019-11-24 00:39:01+00:00,249.4881,4.2,12.49,47.84626,-54.09684
2019-11-24 00:49:01+00:00,241.7264,4.3,12.49,47.84626,-54.09684
2019-11-24 00:59:01+00:00,238.328,4.3,12.49,47.84626,-54.09684
2019-11-24 01:09:01+00:00,228.2348,4.3,12.49,47.84626,-54.09684
2019-11-24 01:19:01+00:00,217.8481,4.3,12.49,47.84626,-54.09684
2019-11-24 01:29:01+00:00,216.1697,4.3,12.49,47.84626,-54.09684
2019-11-24 01:39:01+00:00,214.4015,4.3,12.49,47.84626,-54.09684
2019-11-24 01:49:01+00:00,206.8164,4.3,12.49,47.84626,-54.09684
2019-11-24 01:59:01+00:00,202.5431,4.47,12.49,47.84626,-54.09684
2019-11-24 02:09:01+00:00,203.8864,4.57,12.49,47.84626,-54.09684
2019-11-24 02:19:01+00:00,201.0081,4.6,12.49,47.84626,-54.09684
2019-11-24 02:29:01+00:00,197.9198,4.7,12.49,47.84626,-54.09684
2019-11-24 02:39:01+00:00,200.3664,4.7,12.49,47.84626,-54.09684
2019-11-24 02:49:01+00:00,201.5881,4.77,12.49,47.84626,-54.09684
2019-11-24 02:59:01+00:00,194.3231,4.8,12.49,47.84626,-54.09684
2019-11-24 03:09:01+00:00,191.4632,4.8,12.49,47.84626,-54.09684
2019-11-24 03:19:01+00:00,198.4031,4.8,12.49,47.84626,-54.09684
2019-11-24 03:29:01+00:00,195.8715,4.7,12.49,47.84626,-54.09684
2019-11-24 03:39:01+00:00,188.0232,4.78,12.49,47.84626,-54.09684
2019-11-24 03:49:01+00:00,193.2432,4.79,12.49,47.84626,-54.09684
2019-11-24 03:59:01+00:00,199.0381,4.7,12.49,47.84626,-54.09684
2019-11-24 04:09:01+00:00,193.3848,4.7,12.49,47.84626,-54.09684
2019-11-24 04:19:01+00:00,195.7181,4.7,12.49,47.84626,-54.09684
2019-11-24 04:29:01+00:00,206.5998,4.7,12.49,47.84626,-54.09684
2019-11-24 04:39:01+00:00,209.5131,4.7,12.49,47.84626,-54.09684
2019-11-24 04:49:01+00:00,208.6164,4.74,12.49,47.84626,-54.09684
2019-11-24 04:59:01+00:00,217.9864,4.79,12.49,47.84626,-54.09684
2019-11-24 05:09:01+00:00,226.1331,4.83,12.49,47.84626,-54.09684
2019-11-24 05:19:01+00:00,223.1664,4.9,12.49,47.84626,-54.09684
2019-11-24 05:29:01+00:00,224.8548,4.9,12.49,47.84626,-54.09684
2019-11-24 05:39:01+00:00,234.0965,4.9,12.49,47.84626,-54.09684
2019-11-24 05:49:01+00:00,240.1281,4.94,12.49,47.84626,-54.09684
2019-11-24 05:59:01+00:00,245.5798,5.0,12.49,47.84626,-54.09684
2019-11-24 06:09:01+00:00,255.5297,5.04,12.49,47.84626,-54.09684
2019-11-24 06:19:01+00:00,264.4581,5.07,12.49,47.84626,-54.09684
2019-11-24 06:29:01+00:00,268.4014,5.09,12.49,47.84626,-54.09684
2019-11-24 06:39:01+00:00,280.1131,5.1,12.49,47.84626,-54.09684
2019-11-24 06:49:01+00:00,296.2681,5.05,12.49,47.84626,-54.09684
2019-11-24 06:59:01+00:00,303.7147,5.09,12.49,47.84626,-54.09684
2019-11-24 07:09:01+00:00,304.6197,5.1,12.49,47.84626,-54.09684
2019-11-24 07:19:01+00:00,316.078,5.18,12.49,47.84626,-54.09684
2019-11-24 07:29:01+00:00,329.1296,5.18,12.49,47.84626,-54.09684
2019-11-24 07:39:01+00:00,334.4980000000001,5.14,12.49,47.84626,-54.09684
2019-11-24 07:49:01+00:00,340.2346,5.2,12.49,47.84626,-54.09684
2019-11-24 07:59:01+00:00,354.8947,5.2,12.49,47.84626,-54.09684
2019-11-24 08:09:01+00:00,361.1513,5.17,12.49,47.84626,-54.09684
2019-11-24 08:19:01+00:00,363.323,5.16,12.49,47.84626,-54.09684
2019-11-24 08:29:01+00:00,370.528,5.16,12.49,47.84626,-54.09684
2019-11-24 08:39:01+00:00,373.0995,5.19,12.49,47.84626,-54.09684
2019-11-24 08:49:01+00:00,370.383,5.24,12.49,47.84626,-54.09684
2019-11-24 08:59:01+00:00,375.7196,5.3,12.49,47.84626,-54.09684
2019-11-24 09:09:01+00:00,382.283,5.27,12.49,47.84626,-54.09684
2019-11-24 09:19:01+00:00,381.3763,5.28,12.49,47.84626,-54.09684
2019-11-24 09:29:01+00:00,378.5812,5.33,12.49,47.84626,-54.09684
2019-11-24 09:39:01+00:00,381.1829,5.38,12.49,47.84626,-54.09684
2019-11-24 09:49:01+00:00,385.8179,5.37,12.49,47.84626,-54.09684
2019-11-24 09:59:01+00:00,381.3812,5.4,12.49,47.84626,-54.09684
2019-11-24 10:09:01+00:00,379.30300000000005,5.46,12.49,47.84626,-54.09684
2019-11-24 10:19:01+00:00,381.8345,5.44,12.49,47.84626,-54.09684
2019-11-24 10:29:01+00:00,375.4313,5.48,12.49,47.84626,-54.09684
2019-11-24 10:39:01+00:00,363.98800000000006,5.5,12.49,47.84626,-54.09684
2019-11-24 10:49:01+00:00,362.1563,5.5,12.49,47.84626,-54.09684
2019-11-24 10:59:01+00:00,362.24300000000005,5.49,12.49,47.84626,-54.09684
2019-11-24 11:09:01+00:00,352.4963,5.49,12.49,47.84626,-54.09684
2019-11-24 11:19:01+00:00,343.1296,5.48,12.49,47.84626,-54.09684
2019-11-24 11:29:01+00:00,337.6596,5.5,12.49,47.84626,-54.09684
2019-11-24 11:39:01+00:00,332.2413,5.44,12.49,47.84626,-54.09684
2019-11-24 11:49:01+00:00,321.4563,5.45,12.49,47.84626,-54.09684
2019-11-24 11:59:01+00:00,313.5197,5.46,12.49,47.84626,-54.09684
2019-11-24 12:09:01+00:00,306.6113,5.5,12.49,47.84626,-54.09684
2019-11-24 12:19:01+00:00,297.308,5.5,12.65,47.84626,-54.09684
2019-11-24 12:29:01+00:00,288.8897,5.5,12.65,47.84626,-54.09684
2019-11-24 12:39:01+00:00,279.6347,5.47,12.65,47.84626,-54.09684
2019-11-24 12:49:01+00:00,270.2947,4.8,12.65,47.84626,-54.09684
2019-11-24 12:59:01+00:00,260.0764,4.7,12.65,47.84626,-54.09684
2019-11-24 13:09:01+00:00,251.9464,5.09,12.65,47.84626,-54.09684
2019-11-24 13:19:01+00:00,245.8414,5.2,12.73,47.84626,-54.09684
2019-11-24 13:29:01+00:00,240.7331,4.99,12.73,47.84626,-54.09684
2019-11-24 13:39:01+00:00,233.5964,5.05,12.73,47.84626,-54.09684
2019-11-24 13:49:01+00:00,223.6448,5.1,12.73,47.84626,-54.09684
2019-11-24 13:59:01+00:00,217.5248,5.09,12.73,47.84626,-54.09684
2019-11-24 14:09:01+00:00,217.3731,5.1,12.73,47.84626,-54.09684
2019-11-24 14:19:01+00:00,213.7048,5.1,13.68,47.84626,-54.09684
2019-11-24 14:29:01+00:00,208.8364,5.1,13.68,47.84626,-54.09684
2019-11-24 14:39:01+00:00,205.8615,5.11,13.68,47.84626,-54.09684
2019-11-24 14:49:01+00:00,204.6798,5.14,13.68,47.84626,-54.09684
2019-11-24 14:59:01+00:00,201.2581,5.17,13.68,47.84626,-54.09684
2019-11-24 15:09:01+00:00,198.3565,5.19,13.68,47.84626,-54.09684
2019-11-24 15:19:01+00:00,199.2514,5.15,14.0,47.84626,-54.09684
2019-11-24 15:29:01+00:00,199.7331,5.16,14.0,47.84626,-54.09684
2019-11-24 15:39:01+00:00,196.4998,5.13,14.0,47.84626,-54.09684
2019-11-24 15:49:01+00:00,194.6364,5.0,14.0,47.84626,-54.09684
2019-11-24 15:59:01+00:00,193.6714,5.0,14.0,47.84626,-54.09684
2019-11-24 16:09:01+00:00,192.5531,5.04,14.0,47.84626,-54.09684
2019-11-24 16:19:01+00:00,187.2431,5.1,14.24,47.84626,-54.09684
2019-11-24 16:29:01+00:00,186.1497,5.19,14.24,47.84626,-54.09684
2019-11-24 16:39:01+00:00,189.9831,5.27,14.24,47.84626,-54.09684
2019-11-24 16:49:01+00:00,190.8415,5.29,14.24,47.84626,-54.09684
2019-11-24 16:59:01+00:00,191.2748,5.3,14.24,47.84626,-54.09684
2019-11-24 17:09:01+00:00,190.5115,5.3,14.24,47.84626,-54.09684
2019-11-24 17:19:01+00:00,190.6248,5.35,14.32,47.84626,-54.09684
2019-11-24 17:29:01+00:00,194.8448,5.38,14.32,47.84626,-54.09684
2019-11-24 17:39:01+00:00,198.8548,5.3,14.32,47.84626,-54.09684
2019-11-24 17:49:01+00:00,201.1431,5.37,14.32,47.84626,-54.09684
2019-11-24 17:59:01+00:00,204.9931,5.41,14.32,47.84626,-54.09684
2019-11-24 18:09:01+00:00,213.6964,5.46,14.32,47.84626,-54.09684
2019-11-24 18:19:01+00:00,220.4481,5.49,14.4,47.84626,-54.09684
2019-11-24 18:29:01+00:00,221.3931,5.5,14.4,47.84626,-54.09684
2019-11-24 18:39:01+00:00,229.2248,5.5,14.4,47.84626,-54.09684
2019-11-24 18:49:01+00:00,243.5898,5.6,14.4,47.84626,-54.09684
2019-11-24 18:59:01+00:00,252.6631,5.6,14.4,47.84626,-54.09684
2019-11-24 19:09:01+00:00,256.5164,5.7,14.4,47.84626,-54.09684
2019-11-24 19:19:01+00:00,265.2897,5.7,13.68,47.84626,-54.09684
2019-11-24 19:29:01+00:00,279.9413,5.7,13.68,47.84626,-54.09684
2019-11-24 19:39:01+00:00,285.758,5.7,13.68,47.84626,-54.09684
2019-11-24 19:49:01+00:00,286.2131,5.7,13.68,47.84626,-54.09684
2019-11-24 19:59:01+00:00,298.3414,5.68,13.68,47.84626,-54.09684
2019-11-24 20:09:01+00:00,313.6281,5.69,13.68,47.84626,-54.09684
2019-11-24 20:19:01+00:00,321.9997,5.7,13.21,47.84626,-54.09684
2019-11-24 20:29:01+00:00,325.758,5.7,13.21,47.84626,-54.09684
2019-11-24 20:39:01+00:00,339.1380000000001,5.7,13.21,47.84626,-54.09684
2019-11-24 20:49:01+00:00,346.8313,5.7,13.21,47.84626,-54.09684
2019-11-24 20:59:01+00:00,348.55800000000005,5.7,13.21,47.84626,-54.09684
2019-11-24 21:09:01+00:00,354.5312,5.69,13.21,47.84626,-54.09684
2019-11-24 21:19:01+00:00,357.793,5.68,12.97,47.84626,-54.09684
2019-11-24 21:29:01+00:00,357.1013,5.6,12.97,47.84626,-54.09684
2019-11-24 21:39:01+00:00,356.0862,5.5,12.97,47.84626,-54.09684
2019-11-24 21:49:01+00:00,358.6613,5.48,12.97,47.84626,-54.09684
2019-11-24 21:59:01+00:00,359.9696,5.4,12.97,47.84626,-54.09684
2019-11-24 22:09:01+00:00,360.1346,5.34,12.97,47.84626,-54.09684
2019-11-24 22:19:01+00:00,365.5629,5.39,12.89,47.84626,-54.09684
2019-11-24 22:29:01+00:00,367.4245,5.4,12.89,47.84626,-54.09684
2019-11-24 22:39:01+00:00,366.1513,5.57,12.89,47.84626,-54.09684
2019-11-24 22:49:01+00:00,365.1412,5.6,12.89,47.84626,-54.09684
2019-11-24 22:59:01+00:00,361.3729,5.6,12.89,47.84626,-54.09684
2019-11-24 23:09:01+00:00,359.7396,5.6,12.89,47.84626,-54.09684
2019-11-24 23:19:01+00:00,353.1313,5.6,12.81,47.84626,-54.09684
2019-11-24 23:29:01+00:00,350.1079,5.6,12.81,47.84626,-54.09684
2019-11-24 23:39:01+00:00,350.4464,5.6,12.81,47.84626,-54.09684
2019-11-24 23:49:01+00:00,344.2463,5.6,12.81,47.84626,-54.09684
2019-11-24 23:59:01+00:00,336.3779,5.6,12.81,47.84626,-54.09684
